Weather History for Dublin, VA

Change the Weather History Date:

Thursday, March 13, 2014

  Actual Average (KBCB) Record (KBCB)
Temperature  
Mean Temperature 27 °F 41 °F  
Max Temperature 33 °F 52 °F 78 °F (1990)
Min Temperature 21 °F 29 °F 8 °F (1960)
Degree Days  
Heating Degree Days 38 24  
Month to date heating degree days 339  
Since 1 July heating degree days 4387  
Cooling Degree Days 0 0  
Month to date cooling degree days 0  
Year to date cooling degree days 0  
Moisture  
Dew Point 10 °F    
Average Humidity 50    
Maximum Humidity 78    
Minimum Humidity 31    
Precipitation  
Precipitation 0.00 in 0.11 in 1.30 in (1968)
Month to date precipitation 1.38  
Year to date precipitation 7.27  
Snow  
Snow 0.00 in - - ()
Month to date snowfall  
Since 1 July snowfall  
Snow Depth -    
Sea Level Pressure  
Sea Level Pressure 29.95 in    
Wind  
Wind Speed 16 mph (WNW)    
Max Wind Speed 25 mph    
Max Gust Speed 39 mph    
Visibility 10 miles    
Events Snow    
T = Trace of Precipitation, MM = Missing Value Source: NWS Daily Summary

Daily Weather History Graph

Daily Weather History Graph

Search for Another Location

Airport:

Trip Planner

Search our weather history database for the weather conditions in past years. The results will help you decide how hot, cold, wet, or windy it might be!

Date:

Astronomy

Mar. 13, 2014 Rise Set
Actual Time 7:36 AM EDT 7:28 PM EDT
Civil Twilight 7:10 AM EDT 7:54 PM EDT
Nautical Twilight 6:40 AM EDT 8:24 PM EDT
Astronomical Twilight 6:10 AM EDT 8:54 PM EDT
Moon 4:55 PM EDT (3/13) 5:39 AM EDT (3/13)
Length of Visible Light 12h 43m
Length of Day
11h 51m
Waxing Gibbous, 91% of the Moon is Illuminated
Mar 13
Waxing Gibbous
Mar 16
Full
Mar 23
Last Quarter
Mar 30
New
Apr 7
First Quarter

Hourly Weather History & Observations

Time (EDT) Temp. Windchill Dew Point Humidity Pressure Visibility Wind Dir Wind Speed Gust Speed Precip Events Conditions
12:15 AM 30.2 °F 17.4 °F 20.1 °F 66% 29.67 in 10.0 mi WNW 20.7 mph 27.6 mph N/A   Overcast
12:35 AM 29.8 °F 17.3 °F 19.2 °F 65% 29.69 in 10.0 mi WNW 19.6 mph 35.7 mph N/A   Overcast
12:55 AM 28.4 °F 13.8 °F 16.5 °F 61% 29.70 in 10.0 mi WNW 25.3 mph 32.2 mph N/A   Mostly Cloudy
1:15 AM 27.7 °F 14.8 °F 16.0 °F 62% 29.71 in 10.0 mi WNW 18.4 mph 35.7 mph N/A   Mostly Cloudy
1:35 AM 27.3 °F 13.6 °F 17.1 °F 65% 29.71 in 7.0 mi NW 20.7 mph 26.5 mph N/A Snow Light Snow
1:55 AM 27.0 °F 13.2 °F 17.2 °F 67% 29.73 in 5.0 mi WNW 20.7 mph 29.9 mph N/A Snow Light Snow
2:15 AM 26.6 °F 12.4 °F 16.7 °F 66% 29.74 in 10.0 mi WNW 21.9 mph 27.6 mph N/A Snow Light Snow
2:35 AM 26.6 °F 12.4 °F 14.4 °F 60% 29.75 in 10.0 mi WNW 21.9 mph 39.1 mph N/A   Overcast
2:55 AM 26.6 °F 12.0 °F 14.5 °F 60% 29.75 in 10.0 mi WNW 23.0 mph 29.9 mph N/A Snow Light Snow
3:15 AM 26.6 °F 16.8 °F 14.2 °F 60% 29.75 in 10.0 mi NW 10.4 mph 31.1 mph N/A   Overcast
3:35 AM 26.4 °F 16.6 °F 15.3 °F 63% 29.74 in 10.0 mi WNW 10.4 mph 24.2 mph N/A Snow Light Snow
3:55 AM 26.2 °F 14.2 °F 15.3 °F 63% 29.74 in 10.0 mi WNW 15.0 mph 26.5 mph N/A Snow Light Snow
4:15 AM 26.1 °F 14.5 °F 16.3 °F 67% 29.74 in 10.0 mi NW 13.8 mph 27.6 mph N/A Snow Light Snow
4:35 AM 25.7 °F 13.5 °F 17.4 °F 71% 29.74 in 10.0 mi NW 15.0 mph 21.9 mph N/A Snow Light Snow
4:55 AM 24.8 °F 11.1 °F 18.7 °F 78% 29.75 in 3.0 mi NW 18.4 mph 25.3 mph N/A Snow Light Snow
5:15 AM 24.6 °F 12.2 °F 18.1 °F 76% 29.77 in 7.0 mi NW 15.0 mph 21.9 mph N/A Snow Light Snow
5:35 AM 25.0 °F 14.8 °F 16.5 °F 70% 29.77 in 5.0 mi NNW 10.4 mph 27.6 mph N/A Snow Light Snow
5:55 AM 24.8 °F 12.9 °F 15.8 °F 69% 29.79 in 10.0 mi NW 13.8 mph 20.7 mph N/A Snow Light Snow
6:15 AM 24.6 °F 11.7 °F 14.0 °F 64% 29.81 in 10.0 mi WNW 16.1 mph 32.2 mph N/A Snow Light Snow
6:35 AM 24.3 °F 10.8 °F 12.7 °F 62% 29.81 in 10.0 mi NW 17.3 mph 25.3 mph N/A   Overcast
6:55 AM 23.9 °F 11.7 °F 10.4 °F 56% 29.83 in 10.0 mi NW 13.8 mph 26.5 mph N/A   Overcast
7:15 AM 23.9 °F 12.3 °F 11.3 °F 59% 29.83 in 10.0 mi WNW 12.7 mph 24.2 mph N/A   Overcast
7:35 AM 23.4 °F 12.8 °F 13.3 °F 65% 29.85 in 7.0 mi NW 10.4 mph 21.9 mph N/A Snow Light Snow
7:55 AM 21.7 °F 15.5 °F 15.4 °F 77% 29.86 in 2.0 mi North 4.6 mph - N/A Snow Light Snow
8:15 AM 22.5 °F 9.9 °F 15.1 °F 73% 29.87 in 7.0 mi WNW 13.8 mph 25.3 mph N/A Snow Light Snow
8:35 AM 22.5 °F 10.5 °F 13.6 °F 69% 29.90 in 10.0 mi NW 12.7 mph 18.4 mph N/A Snow Light Snow
8:55 AM 22.5 °F 7.2 °F 12.4 °F 65% 29.91 in 10.0 mi NW 20.7 mph 28.8 mph N/A Snow Light Snow
9:15 AM 22.5 °F 7.6 °F 10.8 °F 61% 29.92 in 10.0 mi WNW 19.6 mph 27.6 mph N/A Snow Light Snow
9:35 AM 23.0 °F 13.1 °F 10.9 °F 60% 29.93 in 10.0 mi NW 9.2 mph 18.4 mph N/A Snow Light Snow
9:55 AM 22.6 °F 9.2 °F 10.6 °F 60% 29.94 in 10.0 mi WNW 16.1 mph 25.3 mph N/A Snow Light Snow
10:15 AM 23.0 °F 10.6 °F 9.9 °F 57% 29.95 in 10.0 mi NW 13.8 mph 21.9 mph N/A   Overcast
10:35 AM 23.9 °F 8.4 °F 9.1 °F 53% 29.96 in 10.0 mi NW 23.0 mph 31.1 mph N/A   Mostly Cloudy
10:55 AM 24.6 °F 13.2 °F 8.4 °F 50% 29.98 in 10.0 mi NNW 12.7 mph 26.5 mph N/A   Mostly Cloudy
11:15 AM 25.0 °F 10.9 °F 8.1 °F 49% 29.99 in 10.0 mi WNW 19.6 mph 28.8 mph N/A Snow Light Snow
11:35 AM 26.1 °F 14.0 °F 8.8 °F 48% 29.99 in 10.0 mi WNW 15.0 mph 24.2 mph N/A Snow Light Snow
11:55 AM 26.1 °F 12.0 °F 6.3 °F 43% 30.00 in 10.0 mi NW 20.7 mph 27.6 mph N/A Snow Light Snow
12:15 PM 26.4 °F 14.0 °F 6.3 °F 42% 30.00 in 10.0 mi WNW 16.1 mph 26.5 mph N/A Snow Light Snow
12:35 PM 27.7 °F 14.5 °F 6.6 °F 41% 30.01 in 10.0 mi WNW 19.6 mph 25.3 mph N/A Snow Light Snow
12:55 PM 27.5 °F 15.4 °F 4.1 °F 37% 30.02 in 10.0 mi NW 16.1 mph 26.5 mph N/A Snow Light Snow
1:15 PM 28.6 °F 16.8 °F 7.3 °F 41% 30.02 in 10.0 mi WNW 16.1 mph 27.6 mph N/A Snow Light Snow
1:35 PM 29.1 °F 19.4 °F 5.9 °F 37% 30.02 in 10.0 mi WNW 11.5 mph 25.3 mph N/A Snow Light Snow
1:55 PM 29.7 °F 19.6 °F 5.4 °F 36% 30.02 in 10.0 mi WNW 12.7 mph 26.5 mph N/A   Clear
2:15 PM 30.4 °F 17.0 °F 5.4 °F 35% 30.03 in 10.0 mi WNW 23.0 mph 28.8 mph N/A   Clear
2:35 PM 30.9 °F 19.4 °F 5.4 °F 34% 30.02 in 10.0 mi WNW 17.3 mph 23.0 mph N/A   Clear
2:55 PM 31.1 °F 20.1 °F 4.8 °F 33% 30.02 in 10.0 mi NW 16.1 mph 31.1 mph N/A   Clear
3:15 PM 32.0 °F 21.6 °F 5.2 °F 32% 30.02 in 10.0 mi West 15.0 mph 27.6 mph N/A   Clear
3:35 PM 32.0 °F 20.1 °F 5.0 °F 32% 30.03 in 10.0 mi WNW 19.6 mph 28.8 mph N/A   Clear
3:55 PM 32.5 °F 22.3 °F 6.6 °F 34% 30.03 in 10.0 mi WNW 15.0 mph 23.0 mph N/A   Clear
4:15 PM 32.5 °F 23.2 °F 5.5 °F 32% 30.03 in 10.0 mi West 12.7 mph 24.2 mph N/A   Clear
4:35 PM 32.9 °F 23.7 °F 6.3 °F 33% 30.03 in 10.0 mi WNW 12.7 mph - N/A   Clear
4:55 PM 33.3 °F 24.1 °F 5.7 °F 31% 30.03 in 10.0 mi West 12.7 mph - N/A   Clear
5:15 PM 33.1 °F 23.4 °F 5.5 °F 31% 30.04 in 10.0 mi NW 13.8 mph 18.4 mph N/A   Clear
5:35 PM 33.3 °F 24.6 °F 7.2 °F 34% 30.06 in 10.0 mi West 11.5 mph - N/A   Clear
5:55 PM 32.4 °F 24.0 °F 6.1 °F 33% 30.06 in 10.0 mi WNW 10.4 mph 17.3 mph N/A   Clear
6:15 PM 32.2 °F 24.4 °F 6.3 °F 34% 30.07 in 10.0 mi West 9.2 mph 16.1 mph N/A   Clear
6:35 PM 32.0 °F 24.8 °F 5.2 °F 32% 30.07 in 10.0 mi West 8.1 mph - N/A   Clear
6:55 PM 32.0 °F 27.5 °F 6.4 °F 34% 30.09 in 10.0 mi West 4.6 mph - N/A   Clear
7:15 PM 30.7 °F 23.3 °F 5.7 °F 35% 30.10 in 10.0 mi West 8.1 mph - N/A   Clear
7:35 PM 29.5 °F 22.5 °F 7.0 °F 39% 30.10 in 10.0 mi West 6.9 mph - N/A   Clear
7:55 PM 29.1 °F 20.6 °F 9.0 °F 43% 30.11 in 10.0 mi West 9.2 mph - N/A   Clear
8:15 PM 29.8 °F 21.5 °F 8.4 °F 41% 30.11 in 10.0 mi WNW 9.2 mph - N/A   Clear
8:35 PM 29.8 °F 19.8 °F 8.2 °F 40% 30.12 in 10.0 mi WNW 12.7 mph - N/A   Clear
8:55 PM 30.0 °F 22.4 °F 8.2 °F 40% 30.13 in 10.0 mi West 8.1 mph - N/A   Clear
9:15 PM 29.1 °F 22.1 °F 9.1 °F 43% 30.14 in 10.0 mi West 6.9 mph - N/A   Clear
9:35 PM 27.7 °F - 9.0 °F 45% 30.16 in 10.0 mi Calm Calm - N/A   Clear
9:55 PM 27.9 °F - 8.6 °F 44% 30.16 in 10.0 mi Calm Calm - N/A   Clear
10:15 PM 28.2 °F 24.4 °F 7.7 °F 42% 30.16 in 10.0 mi WSW 3.5 mph - N/A   Clear
10:35 PM 27.5 °F - 8.4 °F 45% 30.17 in 10.0 mi Calm Calm - N/A   Clear
10:55 PM 28.4 °F - 7.3 °F 41% 30.17 in 10.0 mi Calm Calm - N/A   Clear
11:15 PM 28.2 °F - 7.2 °F 41% 30.17 in 10.0 mi Calm Calm - N/A   Clear
11:35 PM 27.7 °F 23.8 °F 7.7 °F 43% 30.17 in 10.0 mi WSW 3.5 mph - N/A   Clear
11:55 PM 26.8 °F 21.4 °F 9.1 °F 47% 30.17 in 10.0 mi West 4.6 mph - N/A   Clear